Time,TemperatureF,DewpointF,PressureIn,WindDirection,WindDirectionDegrees,WindSpeedMPH,WindSpeedGustMPH,Humidity,HourlyPrecipIn,Conditions,Clouds,dailyrainin,SoftwareType,DateUTC
2013-01-25 00:00:00,65.1,45.5,30.41,NNE,22,1.2,1.2,49,0.00,CLR,SCT,0.00,WeatherDisplay:10.37,2013-01-25 05:00:00,
2013-01-25 00:01:00,65.1,45.5,30.41,NW,315,1.2,1.2,49,0.00,CLR,SCT,0.00,WeatherDisplay:10.37,2013-01-25 05:01:00,
2013-01-25 00:02:00,65.1,45.5,30.41,North,0,1.2,1.2,49,0.00,CLR,SCT,0.00,WeatherDisplay:10.37,2013-01-25 05:02:00,
2013-01-25 00:03:00,65.1,45.5,30.41,NW,315,1.2,1.2,49,0.00,CLR,SCT,0.00,WeatherDisplay:10.37,2013-01-25 05:03:00,
2013-01-25 00:08:00,65.1,45.5,30.41,WNW,292,0.0,0.3,49,0.00,CLR,SCT,0.00,WeatherDisplay:10.37,2013-01-25 05:08:00,
2013-01-25 00:13:00,64.9,45.8,30.41,NW,315,0.0,0.3,50,0.00,CLR,SCT,0.00,WeatherDisplay:10.37,2013-01-25 05:13:00,
2013-01-25 00:18:00,64.9,45.8,30.41,NW,315,1.2,1.2,50,0.00,CLR,SCT,0.00,WeatherDisplay:10.37,2013-01-25 05:18:00,
2013-01-25 00:23:00,64.9,45.8,30.41,NW,315,1.2,1.2,50,0.00,CLR,SCT,0.00,WeatherDisplay:10.37,2013-01-25 05:23:00,
2013-01-25 00:28:00,64.9,45.8,30.41,NW,315,1.2,1.2,50,0.00,CLR,SCT,0.00,WeatherDisplay:10.37,2013-01-25 05:28:00,
2013-01-25 00:33:00,64.9,45.8,30.41,NNE,22,1.2,1.2,50,0.00,CLR,SCT,0.00,WeatherDisplay:10.37,2013-01-25 05:33:00,
2013-01-25 00:38:00,64.9,45.8,30.41,NE,45,0.0,0.5,50,0.00,CLR,SCT,0.00,WeatherDisplay:10.37,2013-01-25 05:38:00,
2013-01-25 00:43:00,64.8,45.7,30.41,NW,315,0.0,0.2,50,0.00,CLR,SCT,0.00,WeatherDisplay:10.37,2013-01-25 05:43:00,
2013-01-25 00:48:00,64.8,45.7,30.41,NW,315,0.0,0.1,50,0.00,CLR,SCT,0.00,WeatherDisplay:10.37,2013-01-25 05:48:00,
2013-01-25 00:53:00,64.8,45.7,30.41,NNW,338,0.0,0.1,50,0.00,CLR,SCT,0.00,WeatherDisplay:10.37,2013-01-25 05:53:00,
2013-01-25 00:58:00,64.6,45.5,30.41,NW,315,0.0,0.1,50,0.00,CLR,SCT,0.00,WeatherDisplay:10.37,2013-01-25 05:58:00,
2013-01-25 01:03:00,64.4,45.3,30.41,WNW,292,0.0,0.0,50,0.00,CLR,SCT,0.00,WeatherDisplay:10.37,2013-01-25 06:03:00,
2013-01-25 01:08:00,64.4,45.3,30.41,WNW,292,0.0,0.0,50,0.00,CLR,SCT,0.00,WeatherDisplay:10.37,2013-01-25 06:08:00,
2013-01-25 01:13:00,64.4,45.3,30.41,NW,315,0.0,0.1,50,0.00,CLR,SCT,0.00,WeatherDisplay:10.37,2013-01-25 06:13:00,
2013-01-25 01:18:00,64.4,45.9,30.41,NW,315,0.0,0.1,51,0.00,CLR,SCT,0.00,WeatherDisplay:10.37,2013-01-25 06:18:00,
2013-01-25 01:23:00,64.2,45.7,30.41,NW,315,1.2,1.2,51,0.00,CLR,SCT,0.00,WeatherDisplay:10.37,2013-01-25 06:23:00,
2013-01-25 01:28:00,64.0,45.5,30.41,WNW,292,0.0,0.1,51,0.00,CLR,SCT,0.00,WeatherDisplay:10.37,2013-01-25 06:28:00,
2013-01-25 01:33:00,64.0,45.5,30.41,NNW,338,1.2,0.0,51,0.00,CLR,SCT,0.00,WeatherDisplay:10.37,2013-01-25 06:33:00,
2013-01-25 01:38:00,63.9,45.9,30.41,NW,315,0.0,0.0,52,0.00,CLR,SCT,0.00,WeatherDisplay:10.37,2013-01-25 06:38:00,
2013-01-25 01:43:00,64.0,46.1,30.41,NW,315,0.0,0.0,52,0.00,CLR,SCT,0.00,WeatherDisplay:10.37,2013-01-25 06:43:00,
2013-01-25 01:48:00,63.9,45.9,30.41,NW,315,0.0,0.1,52,0.00,CLR,SCT,0.00,WeatherDisplay:10.37,2013-01-25 06:48:00,
2013-01-25 01:53:00,63.9,45.9,30.41,NW,315,1.2,1.2,52,0.00,CLR,SCT,0.00,WeatherDisplay:10.37,2013-01-25 06:53:00,
2013-01-25 01:58:00,63.7,45.7,30.41,WNW,292,0.0,0.6,52,0.00,CLR,SCT,0.00,WeatherDisplay:10.37,2013-01-25 06:58:00,
2013-01-25 02:03:00,63.9,45.9,30.41,WNW,292,0.0,0.5,52,0.00,CLR,SCT,0.00,WeatherDisplay:10.37,2013-01-25 07:03:00,
2013-01-25 02:08:00,63.7,45.7,30.41,NW,315,0.0,0.1,52,0.00,CLR,SCT,0.00,WeatherDisplay:10.37,2013-01-25 07:08:00,
2013-01-25 02:13:00,63.7,45.7,30.41,NNW,338,0.0,0.0,52,0.00,CLR,SCT,0.00,WeatherDisplay:10.37,2013-01-25 07:13:00,
2013-01-25 02:18:00,63.5,46.1,30.41,WNW,292,0.0,0.0,53,0.00,CLR,SCT,0.00,WeatherDisplay:10.37,2013-01-25 07:18:00,
2013-01-25 02:23:00,63.5,45.6,30.41,NW,315,0.0,0.0,52,0.00,CLR,SCT,0.00,WeatherDisplay:10.37,2013-01-25 07:23:00,
2013-01-25 02:29:00,63.3,45.9,30.41,NW,315,0.0,0.0,53,0.00,CLR,SCT,0.00,WeatherDisplay:10.37,2013-01-25 07:29:00,
2013-01-25 02:34:00,63.3,45.9,30.41,NW,315,0.0,0.0,53,0.00,CLR,SCT,0.00,WeatherDisplay:10.37,2013-01-25 07:34:00,
2013-01-25 02:39:00,63.1,45.7,30.41,WNW,292,0.0,0.0,53,0.00,CLR,SCT,0.00,WeatherDisplay:10.37,2013-01-25 07:39:00,
2013-01-25 02:44:00,63.1,45.7,30.41,NW,315,0.0,0.0,53,0.00,CLR,SCT,0.00,WeatherDisplay:10.37,2013-01-25 07:44:00,
2013-01-25 02:49:00,63.0,45.6,30.41,NW,315,0.0,0.0,53,0.00,CLR,SCT,0.00,WeatherDisplay:10.37,2013-01-25 07:49:00,
2013-01-25 02:54:00,63.0,45.6,30.41,NW,315,0.0,0.0,53,0.00,CLR,SCT,0.00,WeatherDisplay:10.37,2013-01-25 07:54:00,
2013-01-25 02:59:00,63.0,45.6,30.41,NW,315,0.0,0.0,53,0.00,CLR,SCT,0.00,WeatherDisplay:10.37,2013-01-25 07:59:00,
2013-01-25 03:04:00,62.8,45.4,30.41,NNW,338,0.0,0.0,53,0.00,CLR,SCT,0.00,WeatherDisplay:10.37,2013-01-25 08:04:00,
2013-01-25 03:09:00,62.8,45.4,30.41,NW,315,1.2,1.2,53,0.00,CLR,SCT,0.00,WeatherDisplay:10.37,2013-01-25 08:09:00,
2013-01-25 03:14:00,63.0,45.6,30.41,NW,315,0.0,0.1,53,0.00,CLR,SCT,0.00,WeatherDisplay:10.37,2013-01-25 08:14:00,
2013-01-25 03:19:00,62.8,45.9,30.41,NW,315,0.0,0.1,54,0.00,CLR,SCT,0.00,WeatherDisplay:10.37,2013-01-25 08:19:00,
2013-01-25 03:24:00,62.6,45.7,30.41,NW,315,0.0,0.1,54,0.00,CLR,SCT,0.00,WeatherDisplay:10.37,2013-01-25 08:24:00,
2013-01-25 03:29:00,62.6,45.7,30.41,NW,315,0.0,0.0,54,0.00,CLR,SCT,0.00,WeatherDisplay:10.37,2013-01-25 08:29:00,
2013-01-25 03:34:00,62.6,45.7,30.41,WNW,292,0.0,0.0,54,0.00,CLR,SCT,0.00,WeatherDisplay:10.37,2013-01-25 08:34:00,
2013-01-25 03:39:00,62.8,45.9,30.41,NW,315,0.0,0.0,54,0.00,CLR,SCT,0.00,WeatherDisplay:10.37,2013-01-25 08:39:00,
2013-01-25 03:44:00,62.8,45.9,30.41,NW,315,0.0,0.0,54,0.00,CLR,SCT,0.00,WeatherDisplay:10.37,2013-01-25 08:44:00,
2013-01-25 03:49:00,63.0,45.6,30.41,NNE,22,0.0,0.0,53,0.00,CLR,SCT,0.00,WeatherDisplay:10.37,2013-01-25 08:49:00,
2013-01-25 03:54:00,63.0,45.6,30.41,WNW,292,0.0,0.0,53,0.00,CLR,SCT,0.00,WeatherDisplay:10.37,2013-01-25 08:54:00,
2013-01-25 03:59:00,63.0,45.6,30.41,NNE,22,0.0,0.0,53,0.00,CLR,SCT,0.00,WeatherDisplay:10.37,2013-01-25 08:59:00,
2013-01-25 04:04:00,63.0,45.6,30.41,NNW,338,0.0,0.1,53,0.00,CLR,SCT,0.00,WeatherDisplay:10.37,2013-01-25 09:04:00,
2013-01-25 04:09:00,63.0,45.6,30.41,North,0,0.0,0.1,53,0.00,CLR,SCT,0.00,WeatherDisplay:10.37,2013-01-25 09:09:00,
2013-01-25 04:14:00,63.1,45.7,30.41,North,0,0.0,0.0,53,0.00,CLR,SCT,0.00,WeatherDisplay:10.37,2013-01-25 09:14:00,
2013-01-25 04:19:00,63.0,45.6,30.41,NNW,338,0.0,0.0,53,0.00,CLR,SCT,0.00,WeatherDisplay:10.37,2013-01-25 09:19:00,
2013-01-25 04:24:00,63.0,45.6,30.41,NW,315,0.0,0.0,53,0.00,CLR,SCT,0.00,WeatherDisplay:10.37,2013-01-25 09:24:00,
2013-01-25 04:29:00,63.1,45.7,30.41,West,270,0.0,0.0,53,0.00,CLR,SCT,0.00,WeatherDisplay:10.37,2013-01-25 09:29:00,
2013-01-25 04:34:00,63.0,45.1,30.41,South,180,0.0,0.0,52,0.00,CLR,SCT,0.00,WeatherDisplay:10.37,2013-01-25 09:34:00,
2013-01-25 04:39:00,63.0,45.1,30.41,NW,315,1.2,1.2,52,0.00,CLR,SCT,0.00,WeatherDisplay:10.37,2013-01-25 09:39:00,
2013-01-25 04:44:00,62.8,44.9,30.41,NW,315,0.0,0.3,52,0.00,CLR,SCT,0.00,WeatherDisplay:10.37,2013-01-25 09:44:00,
2013-01-25 04:49:00,62.6,44.7,30.41,NNW,338,1.2,1.2,52,0.00,CLR,SCT,0.00,WeatherDisplay:10.37,2013-01-25 09:49:00,
2013-01-25 04:54:00,62.6,44.7,30.41,NNW,338,0.0,0.1,52,0.00,CLR,SCT,0.00,WeatherDisplay:10.37,2013-01-25 09:54:00,
2013-01-25 04:59:00,62.4,44.6,30.41,North,0,0.0,0.1,52,0.00,CLR,SCT,0.00,WeatherDisplay:10.37,2013-01-25 09:59:00,
2013-01-25 05:04:00,62.4,44.6,30.41,NW,315,0.0,0.0,52,0.00,CLR,SCT,0.00,WeatherDisplay:10.37,2013-01-25 10:04:00,
2013-01-25 05:09:00,62.4,45.1,30.41,NW,315,0.0,0.0,53,0.00,CLR,SCT,0.00,WeatherDisplay:10.37,2013-01-25 10:09:00,
2013-01-25 05:14:00,62.4,45.1,30.41,NNW,338,2.3,2.3,53,0.00,CLR,SCT,0.00,WeatherDisplay:10.37,2013-01-25 10:14:00,
2013-01-25 05:19:00,62.2,44.4,30.41,NW,315,1.2,1.2,52,0.00,CLR,SCT,0.00,WeatherDisplay:10.37,2013-01-25 10:19:00,
2013-01-25 05:24:00,62.4,44.6,30.41,NNW,338,0.0,0.3,52,0.00,CLR,SCT,0.00,WeatherDisplay:10.37,2013-01-25 10:24:00,
2013-01-25 05:29:00,62.2,44.4,30.41,NW,315,0.0,0.2,52,0.00,CLR,SCT,0.00,WeatherDisplay:10.37,2013-01-25 10:29:00,
2013-01-25 05:34:00,62.2,44.4,30.41,NW,315,1.2,1.2,52,0.00,CLR,SCT,0.00,WeatherDisplay:10.37,2013-01-25 10:34:00,
2013-01-25 05:39:00,62.1,44.2,30.41,NW,315,0.0,0.1,52,0.00,CLR,SCT,0.00,WeatherDisplay:10.37,2013-01-25 10:39:00,
2013-01-25 05:44:00,62.1,44.2,30.41,NNW,338,0.0,0.1,52,0.00,CLR,SCT,0.00,WeatherDisplay:10.37,2013-01-25 10:44:00,
2013-01-25 05:49:00,62.1,44.2,30.41,WNW,292,0.0,0.1,52,0.00,CLR,SCT,0.00,WeatherDisplay:10.37,2013-01-25 10:49:00,
2013-01-25 05:54:00,61.9,44.1,30.41,NW,315,0.0,0.0,52,0.00,CLR,SCT,0.00,WeatherDisplay:10.37,2013-01-25 10:54:00,
2013-01-25 05:59:00,61.9,44.6,30.41,WNW,292,0.0,0.0,53,0.00,CLR,SCT,0.00,WeatherDisplay:10.37,2013-01-25 10:59:00,
2013-01-25 06:04:00,61.9,44.6,30.41,NNW,338,0.0,0.0,53,0.00,CLR,SCT,0.00,WeatherDisplay:10.37,2013-01-25 11:04:00,
2013-01-25 06:09:00,61.9,44.1,30.41,NNW,338,0.0,0.0,52,0.00,CLR,SCT,0.00,WeatherDisplay:10.37,2013-01-25 11:09:00,
2013-01-25 06:14:00,61.9,44.1,30.41,WNW,292,0.0,0.0,52,0.00,CLR,SCT,0.00,WeatherDisplay:10.37,2013-01-25 11:14:00,
2013-01-25 06:19:00,61.9,44.6,30.41,NW,315,0.0,0.1,53,0.00,CLR,SCT,0.00,WeatherDisplay:10.37,2013-01-25 11:19:00,
2013-01-25 06:25:00,61.9,44.6,30.41,NW,315,0.0,0.1,53,0.00,CLR,SCT,0.00,WeatherDisplay:10.37,2013-01-25 11:25:00,
2013-01-25 06:30:00,61.9,44.1,30.41,NW,315,1.2,1.2,52,0.00,CLR,SCT,0.00,WeatherDisplay:10.37,2013-01-25 11:30:00,
2013-01-25 06:35:00,62.1,44.2,30.41,NW,315,1.2,1.2,52,0.00,CLR,SCT,0.00,WeatherDisplay:10.37,2013-01-25 11:35:00,
2013-01-25 06:40:00,62.1,43.7,30.41,West,270,1.2,1.2,51,0.00,CLR,SCT,0.00,WeatherDisplay:10.37,2013-01-25 11:40:00,
2013-01-25 06:45:00,62.1,43.7,30.41,NNW,328,0.0,2.0,51,0.00,CLR,SCT,0.00,WeatherDisplay:10.37,2013-01-25 11:45:00,
2013-01-25 06:50:00,62.2,43.9,30.41,NNW,338,1.8,1.8,51,0.00,CLR,SCT,0.00,WeatherDisplay:10.37,2013-01-25 11:50:00,
2013-01-25 06:55:00,62.1,43.7,30.41,NW,315,2.3,2.3,51,0.00,CLR,SCT,0.00,WeatherDisplay:10.37,2013-01-25 11:55:00,
2013-01-25 07:00:00,62.2,43.9,30.41,NW,315,2.3,2.3,51,0.00,CLR,SCT,0.00,WeatherDisplay:10.37,2013-01-25 12:00:00,
2013-01-25 07:05:00,62.1,43.2,30.41,WNW,292,2.3,2.3,50,0.00,CLR,SCT,0.00,WeatherDisplay:10.37,2013-01-25 12:05:00,
2013-01-25 07:10:00,62.2,43.4,30.41,NNW,338,0.0,0.5,50,0.00,CLR,SCT,0.00,WeatherDisplay:10.37,2013-01-25 12:10:00,
2013-01-25 07:15:00,62.4,43.5,30.41,NNW,338,0.0,3.0,50,0.00,CLR,SCT,0.00,WeatherDisplay:10.37,2013-01-25 12:15:00,
2013-01-25 07:20:00,62.4,43.5,30.41,WNW,292,0.0,0.2,50,0.00,CLR,SCT,0.00,WeatherDisplay:10.37,2013-01-25 12:20:00,
2013-01-25 07:25:00,62.4,43.5,30.41,NW,315,1.2,1.2,50,0.00,CLR,SCT,0.00,WeatherDisplay:10.37,2013-01-25 12:25:00,
2013-01-25 07:30:00,62.4,43.5,30.41,NW,312,0.0,1.0,50,0.00,CLR,SCT,0.00,WeatherDisplay:10.37,2013-01-25 12:30:00,
2013-01-25 07:35:00,62.4,43.5,30.41,NNW,338,0.0,0.2,50,0.00,CLR,SCT,0.00,WeatherDisplay:10.37,2013-01-25 12:35:00,
2013-01-25 07:40:00,62.4,43.5,30.41,NNW,338,1.2,1.2,50,0.00,CLR,SCT,0.00,WeatherDisplay:10.37,2013-01-25 12:40:00,
2013-01-25 07:45:00,62.4,43.5,30.41,NNW,343,0.0,2.0,50,0.00,CLR,SCT,0.00,WeatherDisplay:10.37,2013-01-25 12:45:00,
2013-01-25 07:50:00,62.6,43.7,30.41,NNW,338,1.2,1.2,50,0.00,CLR,SCT,0.00,WeatherDisplay:10.37,2013-01-25 12:50:00,
2013-01-25 07:55:00,62.8,43.3,30.41,NNW,338,2.3,2.3,49,0.00,CLR,SCT,0.00,WeatherDisplay:10.37,2013-01-25 12:55:00,
2013-01-25 08:00:00,63.0,43.5,30.41,NW,316,1.0,3.0,49,0.00,CLR,SCT,0.00,WeatherDisplay:10.37,2013-01-25 13:00:00,
2013-01-25 08:05:00,63.0,43.5,30.41,NNW,338,2.3,2.3,49,0.00,CLR,SCT,0.00,WeatherDisplay:10.37,2013-01-25 13:05:00,
2013-01-25 08:10:00,63.1,43.7,30.41,NW,315,2.3,2.3,49,0.00,CLR,SCT,0.00,WeatherDisplay:10.37,2013-01-25 13:10:00,
2013-01-25 08:15:00,63.1,43.7,30.41,NW,317,1.0,3.0,49,0.00,CLR,SCT,0.00,WeatherDisplay:10.37,2013-01-25 13:15:00,
2013-01-25 08:20:00,63.3,43.8,30.41,NW,315,3.5,3.5,49,0.00,CLR,SCT,0.00,WeatherDisplay:10.37,2013-01-25 13:20:00,
2013-01-25 08:25:00,63.5,44.0,30.41,NNW,338,2.3,2.3,49,0.00,CLR,SCT,0.00,WeatherDisplay:10.37,2013-01-25 13:25:00,
2013-01-25 08:30:00,63.7,44.2,30.41,NW,315,0.0,1.5,49,0.00,CLR,SCT,0.00,WeatherDisplay:10.37,2013-01-25 13:30:00,
2013-01-25 08:35:00,63.9,44.3,30.41,NNE,22,1.2,1.2,49,0.00,CLR,SCT,0.00,WeatherDisplay:10.37,2013-01-25 13:35:00,
2013-01-25 08:40:00,64.2,44.1,30.41,NNE,22,2.3,2.3,48,0.00,CLR,SCT,0.00,WeatherDisplay:10.37,2013-01-25 13:40:00,
2013-01-25 08:45:00,64.4,44.3,30.41,NNW,338,2.3,2.3,48,0.00,CLR,SCT,0.00,WeatherDisplay:10.37,2013-01-25 13:45:00,
2013-01-25 08:50:00,64.4,43.7,30.41,NNW,338,3.5,3.5,47,0.00,CLR,SCT,0.00,WeatherDisplay:10.37,2013-01-25 13:50:00,
2013-01-25 08:55:00,64.8,44.1,30.41,NNW,338,4.6,4.6,47,0.00,CLR,SCT,0.00,WeatherDisplay:10.37,2013-01-25 13:55:00,
2013-01-25 09:00:00,64.8,43.5,30.41,NW,315,5.8,5.8,46,0.00,CLR,SCT,0.00,WeatherDisplay:10.37,2013-01-25 14:00:00,
2013-01-25 09:05:00,64.8,44.1,30.41,North,0,4.6,4.6,47,0.00,CLR,SCT,0.00,WeatherDisplay:10.37,2013-01-25 14:05:00,
2013-01-25 09:10:00,65.1,44.4,30.41,North,0,3.7,3.7,47,0.00,CLR,SCT,0.00,WeatherDisplay:10.37,2013-01-25 14:10:00,
2013-01-25 09:15:00,65.1,43.2,30.41,NNE,22,5.5,5.5,45,0.00,CLR,SCT,0.00,WeatherDisplay:10.37,2013-01-25 14:15:00,
2013-01-25 09:20:00,65.7,44.3,30.41,East,90,4.6,4.6,46,0.00,CLR,SCT,0.00,WeatherDisplay:10.37,2013-01-25 14:20:00,
2013-01-25 09:25:00,66.0,44.1,30.41,NW,315,3.5,3.5,45,0.00,CLR,SCT,0.00,WeatherDisplay:10.37,2013-01-25 14:25:00,
2013-01-25 09:30:00,66.4,43.8,30.41,NNE,22,3.5,3.5,44,0.00,CLR,SCT,0.00,WeatherDisplay:10.37,2013-01-25 14:30:00,
2013-01-25 09:35:00,66.6,43.4,30.41,NNE,22,4.6,4.6,43,0.00,CLR,SCT,0.00,WeatherDisplay:10.37,2013-01-25 14:35:00,
2013-01-25 09:40:00,67.3,44.0,30.41,North,0,6.9,6.9,43,0.00,CLR,SCT,0.00,WeatherDisplay:10.37,2013-01-25 14:40:00,
2013-01-25 09:45:00,67.5,43.6,30.41,NNW,338,8.1,8.1,42,0.00,CLR,SCT,0.00,WeatherDisplay:10.37,2013-01-25 14:45:00,
2013-01-25 09:50:00,67.6,44.3,30.41,NNW,338,5.8,5.8,43,0.00,CLR,SCT,0.00,WeatherDisplay:10.37,2013-01-25 14:50:00,
2013-01-25 09:55:00,68.2,44.2,30.41,NNW,338,3.5,3.5,42,0.00,CLR,SCT,0.00,WeatherDisplay:10.37,2013-01-25 14:55:00,
2013-01-25 10:00:00,68.5,45.1,30.41,NNE,22,4.0,4.0,43,0.00,CLR,SCT,0.00,WeatherDisplay:10.37,2013-01-25 15:00:00,
2013-01-25 10:05:00,69.1,45.0,30.41,NNW,338,6.3,6.3,42,0.00,CLR,SCT,0.00,WeatherDisplay:10.37,2013-01-25 15:05:00,
2013-01-25 10:10:00,69.1,45.0,30.41,NNE,22,5.6,5.6,42,0.00,CLR,SCT,0.00,WeatherDisplay:10.37,2013-01-25 15:10:00,
2013-01-25 10:15:00,69.6,45.5,30.41,NNE,22,4.9,4.9,42,0.00,CLR,SCT,0.00,WeatherDisplay:10.37,2013-01-25 15:15:00,
2013-01-25 10:20:00,70.0,45.8,30.41,NNE,22,3.5,3.5,42,0.00,CLR,SCT,0.00,WeatherDisplay:10.37,2013-01-25 15:20:00,
2013-01-25 10:25:00,70.3,46.2,30.41,North,0,3.5,3.5,42,0.00,CLR,SCT,0.00,WeatherDisplay:10.37,2013-01-25 15:25:00,
2013-01-25 10:30:00,70.5,46.3,30.41,North,0,4.6,4.6,42,0.00,CLR,SCT,0.00,WeatherDisplay:10.37,2013-01-25 15:30:00,
2013-01-25 10:35:00,70.5,46.3,30.41,North,0,4.6,4.6,42,0.00,CLR,SCT,0.00,WeatherDisplay:10.37,2013-01-25 15:35:00,
2013-01-25 10:40:00,70.9,46.6,30.41,NNW,338,4.6,4.6,42,0.00,CLR,SCT,0.00,WeatherDisplay:10.37,2013-01-25 15:40:00,
2013-01-25 10:45:00,71.2,47.6,30.41,NNE,22,1.2,2.6,43,0.00,CLR,SCT,0.00,WeatherDisplay:10.37,2013-01-25 15:45:00,
2013-01-25 10:50:00,71.2,47.6,30.41,NNE,22,2.3,2.5,43,0.00,CLR,SCT,0.00,WeatherDisplay:10.37,2013-01-25 15:50:00,
2013-01-25 10:55:00,71.8,48.7,30.41,NNE,22,4.4,4.4,44,0.00,CLR,SCT,0.00,WeatherDisplay:10.37,2013-01-25 15:55:00,
2013-01-25 11:00:00,72.0,48.9,30.41,NE,45,4.7,4.7,44,0.00,CLR,SCT,0.00,WeatherDisplay:10.37,2013-01-25 16:00:00,
2013-01-25 11:05:00,72.1,48.4,30.41,NNE,22,2.3,2.5,43,0.00,CLR,SCT,0.00,WeatherDisplay:10.37,2013-01-25 16:05:00,
2013-01-25 11:10:00,72.3,49.2,30.41,NNE,22,5.8,5.8,44,0.00,CLR,SCT,0.00,WeatherDisplay:10.37,2013-01-25 16:10:00,
2013-01-25 11:15:00,72.7,49.5,30.41,NNE,22,3.5,3.5,44,0.00,CLR,SCT,0.00,WeatherDisplay:10.37,2013-01-25 16:15:00,
2013-01-25 11:20:00,72.9,49.1,30.41,NNW,338,4.6,4.6,43,0.00,CLR,SCT,0.00,WeatherDisplay:10.37,2013-01-25 16:20:00,
2013-01-25 11:25:00,72.7,48.9,30.41,NNW,338,4.3,4.3,43,0.00,CLR,SCT,0.00,WeatherDisplay:10.37,2013-01-25 16:25:00,
2013-01-25 11:30:00,73.2,49.4,30.41,NW,315,4.6,4.6,43,0.00,CLR,SCT,0.00,WeatherDisplay:10.37,2013-01-25 16:30:00,
2013-01-25 11:35:00,73.2,49.4,30.41,East,90,4.6,4.6,43,0.00,CLR,SCT,0.00,WeatherDisplay:10.37,2013-01-25 16:35:00,
2013-01-25 11:40:00,73.4,48.3,30.41,ENE,68,6.6,6.6,41,0.00,CLR,SCT,0.00,WeatherDisplay:10.37,2013-01-25 16:40:00,
2013-01-25 11:45:00,73.6,47.8,30.41,NNE,22,4.6,4.6,40,0.00,CLR,SCT,0.00,WeatherDisplay:10.37,2013-01-25 16:45:00,
2013-01-25 11:50:00,73.8,47.9,30.41,ENE,68,5.8,5.8,40,0.00,CLR,SCT,0.00,WeatherDisplay:10.37,2013-01-25 16:50:00,
2013-01-25 11:55:00,73.8,48.6,30.41,ESE,112,4.6,4.6,41,0.00,CLR,SCT,0.00,WeatherDisplay:10.37,2013-01-25 16:55:00,
2013-01-25 12:00:00,73.8,48.6,30.41,SSE,158,2.3,2.8,41,0.00,CLR,SCT,0.00,WeatherDisplay:10.37,2013-01-25 17:00:00,
2013-01-25 12:05:00,73.9,49.4,30.41,ENE,68,2.3,2.8,42,0.00,CLR,SCT,0.00,WeatherDisplay:10.37,2013-01-25 17:05:00,
2013-01-25 12:10:00,74.1,49.6,30.41,ESE,112,6.9,6.9,42,0.00,CLR,SCT,0.00,WeatherDisplay:10.37,2013-01-25 17:10:00,
2013-01-25 12:15:00,74.5,49.9,30.41,NNE,22,4.9,4.9,42,0.00,CLR,SCT,0.00,WeatherDisplay:10.37,2013-01-25 17:15:00,
2013-01-25 12:20:00,74.7,50.7,30.41,NNE,22,4.6,4.6,43,0.00,CLR,SCT,0.00,WeatherDisplay:10.37,2013-01-25 17:20:00,
2013-01-25 12:25:00,74.5,50.5,30.41,NNE,22,4.6,4.6,43,0.00,CLR,SCT,0.00,WeatherDisplay:10.37,2013-01-25 17:25:00,
2013-01-25 12:31:00,73.9,51.3,30.41,NNE,22,8.1,8.1,45,0.00,CLR,SCT,0.00,WeatherDisplay:10.37,2013-01-25 17:31:00,
2013-01-25 12:36:00,74.3,51.6,30.41,North,0,5.8,5.8,45,0.00,CLR,SCT,0.00,WeatherDisplay:10.37,2013-01-25 17:36:00,
2013-01-25 12:41:00,74.8,52.7,30.41,NNE,22,5.8,5.8,46,0.00,CLR,SCT,0.00,WeatherDisplay:10.37,2013-01-25 17:41:00,
2013-01-25 12:46:00,74.7,51.9,30.41,ENE,68,5.8,5.8,45,0.00,CLR,SCT,0.00,WeatherDisplay:10.37,2013-01-25 17:46:00,
2013-01-25 12:51:00,75.0,51.6,30.41,NNE,22,5.8,5.8,44,0.00,CLR,SCT,0.00,WeatherDisplay:10.37,2013-01-25 17:51:00,
2013-01-25 12:56:00,75.4,50.7,30.41,East,90,5.8,5.8,42,0.00,CLR,SCT,0.00,WeatherDisplay:10.37,2013-01-25 17:56:00,
2013-01-25 13:01:00,76.1,50.0,30.41,ESE,112,8.1,8.1,40,0.00,CLR,SCT,0.00,WeatherDisplay:10.37,2013-01-25 18:01:00,
2013-01-25 13:06:00,76.1,47.2,30.41,ESE,112,4.6,4.6,36,0.00,CLR,SCT,0.00,WeatherDisplay:10.37,2013-01-25 18:06:00,
2013-01-25 13:11:00,76.3,47.4,30.41,WNW,292,4.6,4.6,36,0.00,CLR,SCT,0.00,WeatherDisplay:10.37,2013-01-25 18:11:00,
2013-01-25 13:16:00,76.3,47.4,30.41,ENE,68,5.8,5.8,36,0.00,CLR,SCT,0.00,WeatherDisplay:10.37,2013-01-25 18:16:00,
2013-01-25 13:21:00,76.6,48.4,30.41,NE,45,3.8,3.8,37,0.00,CLR,SCT,0.00,WeatherDisplay:10.37,2013-01-25 18:21:00,
2013-01-25 13:26:00,77.0,48.7,30.41,ESE,112,8.1,8.1,37,0.00,CLR,SCT,0.00,WeatherDisplay:10.37,2013-01-25 18:26:00,
2013-01-25 13:31:00,76.8,47.1,30.41,ESE,112,9.2,9.2,35,0.00,CLR,SCT,0.00,WeatherDisplay:10.37,2013-01-25 18:31:00,
2013-01-25 13:36:00,76.5,46.8,30.41,NNE,22,5.8,5.8,35,0.00,CLR,SCT,0.00,WeatherDisplay:10.37,2013-01-25 18:36:00,
2013-01-25 13:41:00,76.6,47.7,30.41,SE,135,6.9,6.9,36,0.00,CLR,SCT,0.00,WeatherDisplay:10.37,2013-01-25 18:41:00,
2013-01-25 13:46:00,76.6,47.7,30.41,SE,135,6.0,6.0,36,0.00,CLR,SCT,0.00,WeatherDisplay:10.37,2013-01-25 18:46:00,
2013-01-25 13:51:00,76.6,46.2,30.41,NE,45,6.9,6.9,34,0.00,CLR,SCT,0.00,WeatherDisplay:10.37,2013-01-25 18:51:00,
2013-01-25 13:56:00,76.3,46.6,30.41,SE,135,6.9,6.9,35,0.00,CLR,SCT,0.00,WeatherDisplay:10.37,2013-01-25 18:56:00,
2013-01-25 14:01:00,76.6,46.9,30.41,ENE,68,8.1,8.1,35,0.00,CLR,SCT,0.00,WeatherDisplay:10.37,2013-01-25 19:01:00,
2013-01-25 14:06:00,76.6,46.2,30.41,ENE,68,4.6,4.6,34,0.00,CLR,SCT,0.00,WeatherDisplay:10.37,2013-01-25 19:06:00,
2013-01-25 14:11:00,77.0,47.2,30.41,SE,135,6.9,6.9,35,0.00,CLR,SCT,0.00,WeatherDisplay:10.37,2013-01-25 19:11:00,
2013-01-25 14:16:00,76.8,46.3,30.41,ENE,68,5.8,5.8,34,0.00,CLR,SCT,0.00,WeatherDisplay:10.37,2013-01-25 19:16:00,
2013-01-25 14:21:00,76.5,45.2,30.41,ENE,68,4.6,4.6,33,0.00,CLR,SCT,0.00,WeatherDisplay:10.37,2013-01-25 19:21:00,
2013-01-25 14:26:00,76.8,46.3,30.41,NNE,22,5.2,5.2,34,0.00,CLR,SCT,0.00,WeatherDisplay:10.37,2013-01-25 19:26:00,
2013-01-25 14:31:00,76.8,45.5,30.41,NE,45,4.6,4.6,33,0.00,CLR,SCT,0.00,WeatherDisplay:10.37,2013-01-25 19:31:00,
2013-01-25 14:36:00,77.0,47.2,30.41,ESE,112,6.9,6.9,35,0.00,CLR,SCT,0.00,WeatherDisplay:10.37,2013-01-25 19:36:00,
2013-01-25 14:41:00,77.2,46.6,30.41,NE,45,4.6,4.6,34,0.00,CLR,SCT,0.00,WeatherDisplay:10.37,2013-01-25 19:41:00,
2013-01-25 14:46:00,77.2,47.4,30.41,SSE,158,4.6,4.6,35,0.00,CLR,SCT,0.00,WeatherDisplay:10.37,2013-01-25 19:46:00,
2013-01-25 14:51:00,77.2,46.6,30.41,NE,45,4.6,4.6,34,0.00,CLR,SCT,0.00,WeatherDisplay:10.37,2013-01-25 19:51:00,
2013-01-25 14:56:00,77.4,47.6,30.41,ESE,112,4.6,4.6,35,0.00,CLR,SCT,0.00,WeatherDisplay:10.37,2013-01-25 19:56:00,
2013-01-25 15:01:00,77.2,47.4,30.41,South,180,4.6,4.6,35,0.00,CLR,SCT,0.00,WeatherDisplay:10.37,2013-01-25 20:01:00,
2013-01-25 15:06:00,77.5,48.5,30.41,SE,135,3.5,3.5,36,0.00,CLR,SCT,0.00,WeatherDisplay:10.37,2013-01-25 20:06:00,
2013-01-25 15:11:00,77.9,48.8,30.41,ENE,68,2.3,3.2,36,0.00,CLR,SCT,0.00,WeatherDisplay:10.37,2013-01-25 20:11:00,
2013-01-25 15:16:00,77.7,48.6,30.41,ESE,112,6.9,6.9,36,0.00,CLR,SCT,0.00,WeatherDisplay:10.37,2013-01-25 20:16:00,
2013-01-25 15:21:00,77.9,48.8,30.41,SSE,158,4.6,4.6,36,0.00,CLR,SCT,0.00,WeatherDisplay:10.37,2013-01-25 20:21:00,
2013-01-25 15:26:00,78.3,49.1,30.41,SE,135,4.6,4.6,36,0.00,CLR,SCT,0.00,WeatherDisplay:10.37,2013-01-25 20:26:00,
2013-01-25 15:31:00,78.4,49.3,30.41,SE,135,6.9,6.9,36,0.00,CLR,SCT,0.00,WeatherDisplay:10.37,2013-01-25 20:31:00,
2013-01-25 15:36:00,78.6,48.7,30.41,North,0,3.5,3.5,35,0.00,CLR,SCT,0.00,WeatherDisplay:10.37,2013-01-25 20:36:00,
2013-01-25 15:41:00,78.3,49.1,30.41,ESE,112,4.6,4.6,36,0.00,CLR,SCT,0.00,WeatherDisplay:10.37,2013-01-25 20:41:00,
2013-01-25 15:46:00,78.6,49.4,30.41,East,90,4.6,4.6,36,0.00,CLR,SCT,0.00,WeatherDisplay:10.37,2013-01-25 20:46:00,
2013-01-25 15:51:00,79.0,49.7,30.41,SSE,158,4.6,4.6,36,0.00,CLR,SCT,0.00,WeatherDisplay:10.37,2013-01-25 20:51:00,
2013-01-25 15:56:00,79.2,49.9,30.41,NE,45,4.6,4.6,36,0.00,CLR,SCT,0.00,WeatherDisplay:10.37,2013-01-25 20:56:00,
2013-01-25 16:01:00,79.9,49.8,30.41,NNE,22,2.3,2.3,35,0.00,CLR,SCT,0.00,WeatherDisplay:10.37,2013-01-25 21:01:00,
2013-01-25 16:06:00,80.4,49.5,30.41,NE,45,2.3,2.3,34,0.00,CLR,SCT,0.00,WeatherDisplay:10.37,2013-01-25 21:06:00,
2013-01-25 16:11:00,81.0,49.9,30.41,ESE,112,4.6,4.6,34,0.00,CLR,SCT,0.00,WeatherDisplay:10.37,2013-01-25 21:11:00,
2013-01-25 16:16:00,81.7,49.8,30.41,ENE,68,3.5,3.5,33,0.00,CLR,SCT,0.00,WeatherDisplay:10.37,2013-01-25 21:16:00,
2013-01-25 16:21:00,83.1,50.2,30.41,ENE,68,5.2,5.2,32,0.00,CLR,SCT,0.00,WeatherDisplay:10.37,2013-01-25 21:21:00,
2013-01-25 16:26:00,86.2,52.0,30.41,ESE,112,4.6,4.6,31,0.00,CLR,SCT,0.00,WeatherDisplay:10.37,2013-01-25 21:26:00,
2013-01-25 16:31:00,86.5,51.4,30.41,East,90,2.3,3.5,30,0.00,CLR,SCT,0.00,WeatherDisplay:10.37,2013-01-25 21:31:00,
2013-01-25 16:36:00,84.9,49.1,30.41,ENE,68,2.3,2.9,29,0.00,CLR,SCT,0.00,WeatherDisplay:10.37,2013-01-25 21:36:00,
2013-01-25 16:41:00,84.0,47.4,30.41,NE,45,3.5,3.5,28,0.00,CLR,SCT,0.00,WeatherDisplay:10.37,2013-01-25 21:41:00,
2013-01-25 16:46:00,83.5,48.8,30.41,SSW,202,3.5,3.5,30,0.00,CLR,SCT,0.00,WeatherDisplay:10.37,2013-01-25 21:46:00,
2013-01-25 16:51:00,82.6,48.0,30.41,South,180,3.5,3.5,30,0.00,CLR,SCT,0.00,WeatherDisplay:10.37,2013-01-25 21:51:00,
2013-01-25 16:56:00,83.5,48.8,30.41,SE,135,2.3,2.3,30,0.00,CLR,SCT,0.00,WeatherDisplay:10.37,2013-01-25 21:56:00,
2013-01-25 17:01:00,83.5,48.8,30.41,ESE,112,2.3,2.3,30,0.00,CLR,SCT,0.00,WeatherDisplay:10.37,2013-01-25 22:01:00,
2013-01-25 17:06:00,82.9,48.3,30.41,ENE,68,4.6,4.6,30,0.00,CLR,SCT,0.00,WeatherDisplay:10.37,2013-01-25 22:06:00,
2013-01-25 17:11:00,81.3,46.9,30.41,NE,45,1.2,1.5,30,0.00,CLR,SCT,0.00,WeatherDisplay:10.37,2013-01-25 22:11:00,
2013-01-25 17:16:00,80.4,47.9,30.41,East,90,3.5,3.5,32,0.00,CLR,SCT,0.00,WeatherDisplay:10.37,2013-01-25 22:16:00,
2013-01-25 17:22:00,79.2,46.8,30.41,East,90,3.5,3.5,32,0.00,CLR,SCT,0.00,WeatherDisplay:10.37,2013-01-25 22:22:00,
2013-01-25 17:27:00,79.0,47.4,30.41,ENE,68,2.3,2.3,33,0.00,CLR,SCT,0.00,WeatherDisplay:10.37,2013-01-25 22:27:00,
2013-01-25 17:32:00,79.7,48.8,30.41,SE,135,2.3,2.3,34,0.00,CLR,SCT,0.00,WeatherDisplay:10.37,2013-01-25 22:32:00,
2013-01-25 17:37:00,78.4,47.7,30.41,East,90,2.5,2.5,34,0.00,CLR,SCT,0.00,WeatherDisplay:10.37,2013-01-25 22:37:00,
2013-01-25 17:42:00,77.4,47.6,30.41,East,90,1.2,1.2,35,0.00,CLR,SCT,0.00,WeatherDisplay:10.37,2013-01-25 22:42:00,
2013-01-25 17:47:00,76.8,47.8,30.41,East,90,2.3,2.3,36,0.00,CLR,SCT,0.00,WeatherDisplay:10.37,2013-01-25 22:47:00,
2013-01-25 17:52:00,76.3,47.4,30.41,ESE,112,0.0,0.9,36,0.00,CLR,SCT,0.00,WeatherDisplay:10.37,2013-01-25 22:52:00,
2013-01-25 17:57:00,75.6,47.5,30.41,ESE,112,0.0,0.6,37,0.00,CLR,SCT,0.00,WeatherDisplay:10.37,2013-01-25 22:57:00,
2013-01-25 18:02:00,75.4,47.3,30.41,ESE,112,2.3,2.3,37,0.00,CLR,SCT,0.00,WeatherDisplay:10.37,2013-01-25 23:02:00,
2013-01-25 18:07:00,74.8,47.5,30.41,East,90,1.2,1.2,38,0.00,CLR,SCT,0.00,WeatherDisplay:10.37,2013-01-25 23:07:00,
2013-01-25 18:12:00,74.7,48.1,30.41,ENE,68,2.3,2.3,39,0.00,CLR,SCT,0.00,WeatherDisplay:10.37,2013-01-25 23:12:00,
2013-01-25 18:17:00,74.3,47.7,30.41,ESE,112,0.0,0.2,39,0.00,CLR,SCT,0.00,WeatherDisplay:10.37,2013-01-25 23:17:00,
2013-01-25 18:22:00,74.1,48.2,30.41,East,90,0.0,0.2,40,0.00,CLR,SCT,0.00,WeatherDisplay:10.37,2013-01-25 23:22:00,
2013-01-25 18:27:00,71.8,69.0,30.41,SE,135,0.0,0.0,91,0.00,CLR,SCT,0.00,WeatherDisplay:10.37,2013-01-25 23:27:00,
2013-01-25 18:32:00,69.6,67.2,30.41,ESE,112,0.0,0.0,92,0.00,CLR,SCT,0.00,WeatherDisplay:10.37,2013-01-25 23:32:00,
2013-01-25 18:37:00,69.8,67.7,30.41,East,90,0.0,0.0,93,0.00,CLR,SCT,0.00,WeatherDisplay:10.37,2013-01-25 23:37:00,
2013-01-25 18:42:00,69.6,67.5,30.41,ESE,112,0.0,0.0,93,0.00,CLR,SCT,0.00,WeatherDisplay:10.37,2013-01-25 23:42:00,
2013-01-25 18:47:00,69.3,67.1,30.41,ESE,112,0.0,0.0,93,0.00,CLR,SCT,0.00,WeatherDisplay:10.37,2013-01-25 23:47:00,
2013-01-25 18:52:00,69.3,67.1,30.41,ESE,112,0.0,0.0,93,0.00,CLR,SCT,0.00,WeatherDisplay:10.37,2013-01-25 23:52:00,
2013-01-25 18:57:00,69.1,67.0,30.41,ESE,112,0.0,0.0,93,0.00,CLR,SCT,0.00,WeatherDisplay:10.37,2013-01-25 23:57:00,
2013-01-25 19:02:00,69.1,67.0,30.41,ENE,68,0.0,0.0,93,0.00,CLR,SCT,0.00,WeatherDisplay:10.37,2013-01-26 00:02:00,
2013-01-25 19:07:00,69.1,67.3,30.41,SE,135,0.0,0.0,94,0.00,CLR,SCT,0.00,WeatherDisplay:10.37,2013-01-26 00:07:00,
2013-01-25 19:12:00,68.7,66.9,30.41,ESE,112,0.0,0.0,94,0.00,CLR,SCT,0.00,WeatherDisplay:10.37,2013-01-26 00:12:00,
2013-01-25 19:17:00,68.7,66.9,30.41,ENE,68,0.0,0.0,94,0.00,CLR,SCT,0.00,WeatherDisplay:10.37,2013-01-26 00:17:00,
2013-01-25 19:22:00,68.2,66.4,30.41,ENE,68,0.0,0.0,94,0.00,CLR,SCT,0.00,WeatherDisplay:10.37,2013-01-26 00:22:00,
2013-01-25 19:27:00,68.0,66.2,30.41,ENE,68,0.0,0.0,94,0.00,CLR,SCT,0.00,WeatherDisplay:10.37,2013-01-26 00:27:00,
2013-01-25 19:32:00,68.0,66.2,30.41,ENE,68,0.0,0.0,94,0.00,CLR,SCT,0.00,WeatherDisplay:10.37,2013-01-26 00:32:00,
2013-01-25 19:37:00,68.0,66.2,30.41,ENE,68,0.0,0.0,94,0.00,CLR,SCT,0.00,WeatherDisplay:10.37,2013-01-26 00:37:00,
2013-01-25 19:42:00,67.8,66.0,30.41,ENE,68,0.0,0.0,94,0.00,CLR,SCT,0.00,WeatherDisplay:10.37,2013-01-26 00:42:00,
2013-01-25 19:47:00,67.6,65.9,30.41,ENE,68,0.0,0.0,94,0.00,CLR,SCT,0.00,WeatherDisplay:10.37,2013-01-26 00:47:00,
2013-01-25 19:52:00,67.6,65.9,30.41,ESE,112,0.0,0.0,94,0.00,CLR,SCT,0.00,WeatherDisplay:10.37,2013-01-26 00:52:00,
2013-01-25 19:57:00,67.5,65.7,30.41,ESE,112,0.0,0.0,94,0.00,CLR,SCT,0.00,WeatherDisplay:10.37,2013-01-26 00:57:00,
2013-01-25 20:02:00,67.3,65.5,30.41,ESE,112,0.0,0.0,94,0.00,CLR,SCT,0.00,WeatherDisplay:10.37,2013-01-26 01:02:00,
2013-01-25 20:07:00,67.3,65.5,30.41,ESE,112,0.0,0.0,94,0.00,CLR,SCT,0.00,WeatherDisplay:10.37,2013-01-26 01:07:00,
2013-01-25 20:12:00,67.3,65.5,30.41,ESE,112,0.0,0.0,94,0.00,CLR,SCT,0.00,WeatherDisplay:10.37,2013-01-26 01:12:00,
2013-01-25 20:17:00,67.1,65.3,30.41,ESE,112,0.0,0.0,94,0.00,CLR,SCT,0.00,WeatherDisplay:10.37,2013-01-26 01:17:00,
2013-01-25 20:22:00,67.3,65.5,30.41,ESE,112,0.0,0.0,94,0.00,CLR,SCT,0.00,WeatherDisplay:10.37,2013-01-26 01:22:00,
2013-01-25 20:27:00,67.3,65.5,30.41,ESE,112,0.0,0.0,94,0.00,CLR,SCT,0.00,WeatherDisplay:10.37,2013-01-26 01:27:00,
2013-01-25 20:32:00,67.5,65.7,30.41,ESE,112,0.0,0.0,94,0.00,CLR,SCT,0.00,WeatherDisplay:10.37,2013-01-26 01:32:00,
2013-01-25 20:37:00,67.1,65.3,30.41,ESE,112,0.0,0.0,94,0.00,CLR,SCT,0.00,WeatherDisplay:10.37,2013-01-26 01:37:00,
2013-01-25 20:42:00,66.9,65.1,30.41,ESE,112,0.0,0.0,94,0.00,CLR,SCT,0.00,WeatherDisplay:10.37,2013-01-26 01:42:00,
2013-01-25 20:47:00,67.1,65.3,30.41,ESE,112,0.0,0.0,94,0.00,CLR,SCT,0.00,WeatherDisplay:10.37,2013-01-26 01:47:00,
2013-01-25 20:52:00,67.1,65.3,30.41,ESE,112,0.0,0.0,94,0.00,CLR,SCT,0.00,WeatherDisplay:10.37,2013-01-26 01:52:00,
2013-01-25 20:57:00,66.9,65.1,30.41,ESE,112,0.0,0.0,94,0.00,CLR,SCT,0.00,WeatherDisplay:10.37,2013-01-26 01:57:00,
2013-01-25 21:02:00,66.9,65.1,30.41,ESE,112,0.0,0.0,94,0.00,CLR,SCT,0.00,WeatherDisplay:10.37,2013-01-26 02:02:00,
2013-01-25 21:07:00,67.1,65.6,30.41,ESE,112,0.0,0.0,95,0.00,CLR,SCT,0.00,WeatherDisplay:10.37,2013-01-26 02:07:00,
2013-01-25 21:12:00,66.7,65.3,30.41,ESE,112,0.0,0.0,95,0.00,CLR,SCT,0.00,WeatherDisplay:10.37,2013-01-26 02:12:00,
2013-01-25 21:17:00,66.7,65.3,30.41,ESE,112,0.0,0.0,95,0.00,CLR,SCT,0.00,WeatherDisplay:10.37,2013-01-26 02:17:00,
2013-01-25 21:22:00,66.6,65.1,30.41,ESE,112,0.0,0.0,95,0.00,CLR,SCT,0.00,WeatherDisplay:10.37,2013-01-26 02:22:00,
2013-01-25 21:27:00,66.7,65.3,30.41,ESE,112,0.0,0.0,95,0.00,CLR,SCT,0.00,WeatherDisplay:10.37,2013-01-26 02:27:00,
2013-01-25 21:32:00,66.9,65.4,30.41,ESE,112,0.0,0.0,95,0.00,CLR,SCT,0.00,WeatherDisplay:10.37,2013-01-26 02:32:00,
2013-01-25 21:37:00,66.9,65.4,30.41,ESE,112,0.0,0.0,95,0.00,CLR,SCT,0.00,WeatherDisplay:10.37,2013-01-26 02:37:00,
2013-01-25 21:42:00,66.7,65.3,30.41,ESE,112,0.0,0.0,95,0.00,CLR,SCT,0.00,WeatherDisplay:10.37,2013-01-26 02:42:00,
2013-01-25 21:47:00,66.7,65.3,30.41,ESE,112,0.0,0.0,95,0.00,CLR,SCT,0.00,WeatherDisplay:10.37,2013-01-26 02:47:00,
2013-01-25 21:52:00,67.1,65.6,30.41,ESE,112,0.0,0.0,95,0.00,CLR,SCT,0.00,WeatherDisplay:10.37,2013-01-26 02:52:00,
2013-01-25 21:57:00,66.9,65.4,30.41,SW,225,0.0,0.0,95,0.00,CLR,SCT,0.00,WeatherDisplay:10.37,2013-01-26 02:57:00,
2013-01-25 22:02:00,66.7,65.3,30.41,SW,225,0.0,0.0,95,0.00,CLR,SCT,0.00,WeatherDisplay:10.37,2013-01-26 03:02:00,
2013-01-25 22:07:00,66.7,65.3,30.41,SW,225,0.0,0.0,95,0.00,CLR,SCT,0.00,WeatherDisplay:10.37,2013-01-26 03:07:00,
2013-01-25 22:12:00,66.6,65.1,30.41,SW,225,0.0,0.0,95,0.00,CLR,SCT,0.00,WeatherDisplay:10.37,2013-01-26 03:12:00,
2013-01-25 22:17:00,66.6,65.1,30.41,SW,225,0.0,0.0,95,0.00,CLR,SCT,0.00,WeatherDisplay:10.37,2013-01-26 03:17:00,
2013-01-25 22:22:00,66.6,65.1,30.41,SW,225,0.0,0.0,95,0.00,CLR,SCT,0.00,WeatherDisplay:10.37,2013-01-26 03:22:00,
2013-01-25 22:27:00,66.6,65.1,30.41,SW,225,0.0,0.0,95,0.00,CLR,SCT,0.00,WeatherDisplay:10.37,2013-01-26 03:27:00,
2013-01-25 22:32:00,66.6,65.1,30.41,SW,225,0.0,0.0,95,0.00,CLR,SCT,0.00,WeatherDisplay:10.37,2013-01-26 03:32:00,
2013-01-25 22:37:00,66.6,65.1,30.41,SW,225,0.0,0.0,95,0.00,CLR,SCT,0.00,WeatherDisplay:10.37,2013-01-26 03:37:00,
2013-01-25 22:43:00,66.7,65.3,30.41,SW,225,0.0,0.0,95,0.00,CLR,SCT,0.00,WeatherDisplay:10.37,2013-01-26 03:43:00,
2013-01-25 22:48:00,66.6,65.1,30.41,SW,225,0.0,0.0,95,0.00,CLR,SCT,0.00,WeatherDisplay:10.37,2013-01-26 03:48:00,
2013-01-25 22:53:00,66.2,64.7,30.41,NW,315,0.0,0.0,95,0.00,CLR,SCT,0.00,WeatherDisplay:10.37,2013-01-26 03:53:00,
2013-01-25 22:58:00,66.4,64.9,30.41,NW,315,0.0,0.0,95,0.00,CLR,SCT,0.00,WeatherDisplay:10.37,2013-01-26 03:58:00,
2013-01-25 23:03:00,66.4,64.9,30.41,NW,315,0.0,0.0,95,0.00,CLR,SCT,0.00,WeatherDisplay:10.37,2013-01-26 04:03:00,
2013-01-25 23:08:00,66.4,64.9,30.41,NW,315,0.0,0.0,95,0.00,CLR,SCT,0.00,WeatherDisplay:10.37,2013-01-26 04:08:00,
2013-01-25 23:13:00,66.2,64.7,30.41,NW,315,0.0,0.0,95,0.00,CLR,SCT,0.00,WeatherDisplay:10.37,2013-01-26 04:13:00,
2013-01-25 23:18:00,66.2,64.7,30.41,NNE,22,0.0,0.0,95,0.00,CLR,SCT,0.00,WeatherDisplay:10.37,2013-01-26 04:18:00,
2013-01-25 23:23:00,66.2,64.7,30.41,NNE,22,0.0,0.0,95,0.00,CLR,SCT,0.00,WeatherDisplay:10.37,2013-01-26 04:23:00,
2013-01-25 23:28:00,66.0,64.5,30.41,NNW,338,0.0,0.0,95,0.00,CLR,SCT,0.00,WeatherDisplay:10.37,2013-01-26 04:28:00,
2013-01-25 23:33:00,66.2,64.7,30.41,WSW,248,0.0,0.0,95,0.00,CLR,SCT,0.00,WeatherDisplay:10.37,2013-01-26 04:33:00,
2013-01-25 23:38:00,66.0,64.5,30.41,WSW,248,0.0,0.0,95,0.00,CLR,SCT,0.00,WeatherDisplay:10.37,2013-01-26 04:38:00,
2013-01-25 23:43:00,66.0,64.5,30.41,North,0,0.0,0.0,95,0.00,CLR,SCT,0.00,WeatherDisplay:10.37,2013-01-26 04:43:00,
2013-01-25 23:48:00,65.8,64.4,30.41,NW,315,0.0,0.0,95,0.00,CLR,SCT,0.00,WeatherDisplay:10.37,2013-01-26 04:48:00,
2013-01-25 23:53:00,65.7,64.2,30.41,NW,315,0.0,0.0,95,0.00,CLR,SCT,0.00,WeatherDisplay:10.37,2013-01-26 04:53:00,
2013-01-25 23:58:00,65.8,64.4,30.41,WNW,292,0.0,0.0,95,0.00,CLR,SCT,0.00,WeatherDisplay:10.37,2013-01-26 04:58:00,